When you browse on this site, cookies collect data to enhance your experience and personalize the content and advertising you see.
Visit our Privacy Policy to learn more. By continuing to use the site, you agree to this use of cookies and data.
  • în România
  • Lista ţărilor
  • Pe 7 zile
  • Temperatura apei
  • Meteo pe hartă
  • Widget-uri
  • user-avatar
    Intrare

    Meteo pe oră la Rechane

    Astăzi, 16 Septembrie, Luni

    Timp Temperatura Precipitaţii Vânt Presiune Umiditate
    00:00 +9°C° 0.3 mm 5 m/s 733 mmHg 91%
    01:00 +9°C° 0.3 mm 5 m/s 732 mmHg 93%
    02:00 +10°C° 0 mm 4 m/s 732 mmHg 95%
    03:00 +8°C° 0.1 mm 4 m/s 732 mmHg 95%
    04:00 +8°C° 0.1 mm 4 m/s 731 mmHg 94%
    05:00 +7°C° 0.1 mm 4 m/s 731 mmHg 94%
    06:00 +8°C° 0.1 mm 4 m/s 731 mmHg 92%
    07:00 +8°C° 0.1 mm 5 m/s 731 mmHg 91%
    08:00 +8°C° 0.1 mm 5 m/s 731 mmHg 89%
    09:00 +9°C° 0.2 mm 5 m/s 731 mmHg 89%
    10:00 +9°C° 0.2 mm 5 m/s 731 mmHg 88%
    11:00 +9°C° 0.2 mm 5 m/s 731 mmHg 88%
    12:00 +10°C° 0.3 mm 6 m/s 731 mmHg 84%
    13:00 +11°C° 0.3 mm 6 m/s 731 mmHg 81%
    14:00 +13°C° 0.3 mm 6 m/s 731 mmHg 77%
    15:00 +11°C° 0.4 mm 6 m/s 731 mmHg 80%
    16:00 +10°C° 0.4 mm 6 m/s 731 mmHg 83%
    17:00 +10°C° 0.4 mm 6 m/s 731 mmHg 86%
    18:00 +9°C° 0.1 mm 5 m/s 731 mmHg 88%
    19:00 +8°C° 0.1 mm 5 m/s 731 mmHg 90%
    20:00 +8°C° 0.1 mm 5 m/s 731 mmHg 92%
    21:00 +8°C° 0.1 mm 5 m/s 731 mmHg 92%
    22:00 +8°C° 0.1 mm 5 m/s 731 mmHg 92%
    23:00 +8°C° 0.1 mm 5 m/s 731 mmHg 91%

    Mâine, 17 Septembrie, Marţi

    Timp Temperatura Precipitaţii Vânt Presiune Umiditate
    00:00 +8°C° 0 mm 5 m/s 731 mmHg 91%
    01:00 +7°C° 0 mm 5 m/s 731 mmHg 91%
    02:00 +7°C° 0 mm 5 m/s 731 mmHg 90%
    03:00 +7°C° 0 mm 5 m/s 731 mmHg 90%
    04:00 +6°C° 0 mm 5 m/s 731 mmHg 90%
    05:00 +6°C° 0 mm 5 m/s 731 mmHg 91%
    06:00 +6°C° 0.1 mm 5 m/s 731 mmHg 90%
    07:00 +6°C° 0.1 mm 5 m/s 731 mmHg 90%
    08:00 +6°C° 0.1 mm 4 m/s 731 mmHg 89%
    09:00 +6°C° 0.1 mm 4 m/s 731 mmHg 88%
    10:00 +7°C° 0.1 mm 4 m/s 732 mmHg 86%
    11:00 +7°C° 0.1 mm 4 m/s 732 mmHg 85%
    12:00 +8°C° 0.2 mm 4 m/s 732 mmHg 84%
    13:00 +8°C° 0.2 mm 4 m/s 732 mmHg 84%
    14:00 +10°C° 0.2 mm 4 m/s 732 mmHg 83%
    15:00 +10°C° 0.3 mm 3 m/s 732 mmHg 85%
    16:00 +9°C° 0.3 mm 3 m/s 731 mmHg 87%
    17:00 +9°C° 0.3 mm 2 m/s 731 mmHg 89%
    18:00 +8°C° 0.1 mm 2 m/s 731 mmHg 92%
    19:00 +7°C° 0.1 mm 2 m/s 732 mmHg 94%
    20:00 +6°C° 0.1 mm 2 m/s 732 mmHg 97%
    21:00 +7°C° 0 mm 1 m/s 731 mmHg 97%
    22:00 +6°C° 0 mm 1 m/s 731 mmHg 98%
    23:00 +6°C° 0 mm 1 m/s 731 mmHg 98%

    Poimâine, 18 Septembrie, Miercuri

    Timp Temperatura Precipitaţii Vânt Presiune Umiditate
    00:00 +6°C° 0 mm 1 m/s 731 mmHg 98%
    01:00 +5°C° 0 mm 1 m/s 731 mmHg 98%
    02:00 +5°C° 0 mm 1 m/s 731 mmHg 98%
    03:00 +3°C° 0 mm 0 m/s 731 mmHg 98%
    04:00 +3°C° 0 mm 0 m/s 731 mmHg 98%
    05:00 +3°C° 0 mm 0 m/s 731 mmHg 98%
    06:00 +4°C° 0 mm 0 m/s 731 mmHg 96%
    07:00 +7°C° 0 mm 1 m/s 731 mmHg 94%
    08:00 +8°C° 0 mm 1 m/s 731 mmHg 92%
    09:00 +9°C° 0 mm 1 m/s 732 mmHg 85%
    10:00 +9°C° 0 mm 2 m/s 732 mmHg 79%
    11:00 +10°C° 0 mm 2 m/s 732 mmHg 72%
    12:00 +12°C° 0 mm 2 m/s 732 mmHg 68%
    13:00 +11°C° 0 mm 3 m/s 733 mmHg 63%
    14:00 +12°C° 0 mm 3 m/s 733 mmHg 59%
    15:00 +11°C° 0 mm 3 m/s 733 mmHg 64%
    16:00 +10°C° 0 mm 2 m/s 734 mmHg 69%
    17:00 +9°C° 0 mm 2 m/s 734 mmHg 74%
    18:00 +8°C° 0 mm 2 m/s 734 mmHg 81%
    19:00 +7°C° 0 mm 2 m/s 735 mmHg 87%
    20:00 +6°C° 0 mm 2 m/s 735 mmHg 93%
    21:00 +5°C° 0 mm 2 m/s 736 mmHg 95%
    22:00 +5°C° 0 mm 2 m/s 736 mmHg 96%
    23:00 +4°C° 0 mm 2 m/s 737 mmHg 97%

    19 Septembrie, Joi

    Timp Temperatura Precipitaţii Vânt Presiune Umiditate
    00:00 +4°C° 0 mm 2 m/s 737 mmHg 97%
    01:00 +3°C° 0 mm 2 m/s 738 mmHg 97%
    02:00 +3°C° 0 mm 2 m/s 738 mmHg 98%
    03:00 +2°C° 0 mm 2 m/s 739 mmHg 98%
    04:00 +2°C° 0 mm 2 m/s 739 mmHg 98%
    05:00 +2°C° 0 mm 2 m/s 739 mmHg 98%
    06:00 +3°C° 0 mm 2 m/s 740 mmHg 94%
    07:00 +4°C° 0 mm 2 m/s 740 mmHg 90%
    08:00 +5°C° 0 mm 2 m/s 741 mmHg 86%
    09:00 +6°C° 0.1 mm 2 m/s 741 mmHg 79%
    10:00 +7°C° 0.1 mm 2 m/s 741 mmHg 71%
    11:00 +8°C° 0.1 mm 3 m/s 742 mmHg 64%
    12:00 +9°C° 0.1 mm 3 m/s 742 mmHg 62%
    13:00 +9°C° 0.1 mm 3 m/s 742 mmHg 61%
    14:00 +9°C° 0.1 mm 3 m/s 742 mmHg 59%
    15:00 +9°C° 0.1 mm 2 m/s 742 mmHg 63%
    16:00 +8°C° 0.1 mm 2 m/s 743 mmHg 67%
    17:00 +7°C° 0.1 mm 2 m/s 743 mmHg 71%
    18:00 +7°C° 0 mm 1 m/s 743 mmHg 77%
    19:00 +5°C° 0 mm 1 m/s 744 mmHg 83%
    20:00 +4°C° 0 mm 1 m/s 744 mmHg 90%
    21:00 +3°C° 0 mm 1 m/s 744 mmHg 91%
    22:00 +3°C° 0 mm 1 m/s 744 mmHg 93%
    23:00 +3°C° 0 mm 1 m/s 745 mmHg 94%

    20 Septembrie, Vineri

    Timp Temperatura Precipitaţii Vânt Presiune Umiditate
    00:00 +2°C° 0 mm 1 m/s 745 mmHg 95%
    01:00 +2°C° 0 mm 1 m/s 745 mmHg 95%
    02:00 +1°C° 0 mm 2 m/s 745 mmHg 96%
    03:00 +1°C° 0 mm 2 m/s 745 mmHg 96%
    04:00 -1°C° 0 mm 2 m/s 745 mmHg 97%
    05:00 -1°C° 0 mm 2 m/s 745 mmHg 97%
    06:00 +1°C° 0 mm 2 m/s 746 mmHg 91%
    07:00 +2°C° 0 mm 2 m/s 746 mmHg 85%
    08:00 +3°C° 0 mm 2 m/s 746 mmHg 79%
    09:00 +5°C° 0 mm 2 m/s 746 mmHg 70%
    10:00 +5°C° 0 mm 3 m/s 746 mmHg 62%
    11:00 +8°C° 0 mm 3 m/s 747 mmHg 54%
    12:00 +8°C° 0.2 mm 3 m/s 747 mmHg 58%
    13:00 +7°C° 0.2 mm 3 m/s 746 mmHg 63%
    14:00 +7°C° 0.2 mm 3 m/s 746 mmHg 67%
    15:00 +7°C° 0.1 mm 3 m/s 746 mmHg 68%
    16:00 +6°C° 0.1 mm 2 m/s 746 mmHg 69%
    17:00 +6°C° 0.1 mm 2 m/s 746 mmHg 70%
    18:00 +5°C° 0 mm 1 m/s 747 mmHg 74%
    19:00 +4°C° 0 mm 1 m/s 747 mmHg 77%
    20:00 +2°C° 0 mm 1 m/s 747 mmHg 81%
    21:00 +2°C° 0 mm 1 m/s 747 mmHg 82%
    22:00 +2°C° 0 mm 1 m/s 747 mmHg 84%
    23:00 +2°C° 0 mm 1 m/s 747 mmHg 85%

    21 Septembrie, Sâmbătă

    Timp Temperatura Precipitaţii Vânt Presiune Umiditate
    00:00 +1°C° 0 mm 1 m/s 747 mmHg 87%
    01:00 +1°C° 0 mm 1 m/s 748 mmHg 89%
    02:00 +1°C° 0 mm 1 m/s 748 mmHg 91%
    03:00 +1°C° 0 mm 1 m/s 748 mmHg 92%
    04:00 0°C° 0 mm 1 m/s 748 mmHg 93%
    05:00 0°C° 0 mm 1 m/s 748 mmHg 94%
    06:00 +2°C° 0 mm 1 m/s 748 mmHg 86%
    07:00 +3°C° 0 mm 1 m/s 749 mmHg 79%
    08:00 +5°C° 0 mm 1 m/s 749 mmHg 71%
    09:00 +7°C° 0 mm 1 m/s 749 mmHg 63%
    10:00 +8°C° 0 mm 1 m/s 749 mmHg 56%
    11:00 +10°C° 0 mm 1 m/s 749 mmHg 48%
    12:00 +9°C° 0 mm 2 m/s 749 mmHg 48%
    13:00 +10°C° 0 mm 2 m/s 749 mmHg 47%
    14:00 +10°C° 0 mm 2 m/s 749 mmHg 47%
    15:00 +9°C° 0 mm 2 m/s 749 mmHg 53%
    16:00 +9°C° 0 mm 1 m/s 749 mmHg 59%
    17:00 +8°C° 0 mm 1 m/s 749 mmHg 65%
    18:00 +7°C° 0 mm 1 m/s 749 mmHg 67%
    19:00 +6°C° 0 mm 1 m/s 749 mmHg 69%
    20:00 +5°C° 0 mm 1 m/s 749 mmHg 72%
    21:00 +4°C° 0 mm 2 m/s 749 mmHg 74%
    22:00 +4°C° 0 mm 2 m/s 749 mmHg 76%
    23:00 +4°C° 0 mm 2 m/s 748 mmHg 78%
    Arată mai mult